Time,TemperatureF,DewpointF,PressureIn,WindDirection,WindDirectionDegrees,WindSpeedMPH,WindSpeedGustMPH,Humidity,HourlyPrecipIn,Conditions,Clouds,dailyrainin,SoftwareType,DateUTC
2013-02-15 00:02:00,45.0,27.0,-100.00,North,355,2.0,3.0,50,-99.99,,,-99.99,,2013-02-15 06:02:00,
2013-02-15 00:11:00,44.0,27.0,-100.00,NNW,340,4.0,6.0,52,-99.99,,,-99.99,,2013-02-15 06:11:00,
2013-02-15 00:22:00,44.0,27.0,-100.00,NNW,340,4.0,6.0,52,-99.99,,,-99.99,,2013-02-15 06:22:00,
2013-02-15 00:42:00,43.0,28.0,-100.00,NNE,25,0.0,1.0,56,-99.99,,,-99.99,,2013-02-15 06:42:00,
2013-02-15 00:52:00,41.0,28.0,-100.00,North,5,0.0,0.0,59,-99.99,,,-99.99,,2013-02-15 06:52:00,
2013-02-15 01:01:00,41.0,28.0,-100.00,North,5,0.0,0.0,59,-99.99,,,-99.99,,2013-02-15 07:01:00,
2013-02-15 01:11:00,40.0,29.0,-100.00,South,185,1.0,1.0,63,-99.99,,,-99.99,,2013-02-15 07:11:00,
2013-02-15 01:21:00,39.0,29.0,-100.00,SSE,160,0.0,0.0,67,-99.99,,,-99.99,,2013-02-15 07:21:00,
2013-02-15 01:31:00,39.0,29.0,-100.00,SSE,160,0.0,0.0,67,-99.99,,,-99.99,,2013-02-15 07:31:00,
2013-02-15 01:42:00,39.0,30.0,-100.00,SW,220,1.0,1.0,70,-99.99,,,-99.99,,2013-02-15 07:42:00,
2013-02-15 01:52:00,38.0,30.0,-100.00,WSW,250,1.0,1.0,73,-99.99,,,-99.99,,2013-02-15 07:52:00,
2013-02-15 02:01:00,38.0,30.0,-100.00,WSW,250,1.0,1.0,73,-99.99,,,-99.99,,2013-02-15 08:01:00,
2013-02-15 02:11:00,38.0,31.0,-100.00,WNW,285,1.0,3.0,75,-99.99,,,-99.99,,2013-02-15 08:11:00,
2013-02-15 02:21:00,37.0,30.0,-100.00,East,80,0.0,0.0,77,-99.99,,,-99.99,,2013-02-15 08:21:00,
2013-02-15 02:32:00,37.0,30.0,-100.00,East,80,0.0,0.0,77,-99.99,,,-99.99,,2013-02-15 08:32:00,
2013-02-15 02:42:00,38.0,31.0,-100.00,West,275,3.0,4.0,78,-99.99,,,-99.99,,2013-02-15 08:42:00,
2013-02-15 02:53:00,37.0,31.0,-100.00,West,280,1.0,3.0,78,-99.99,,,-99.99,,2013-02-15 08:53:00,
2013-02-15 03:02:00,37.0,31.0,-100.00,West,280,1.0,3.0,78,-99.99,,,-99.99,,2013-02-15 09:02:00,
2013-02-15 03:12:00,38.0,32.0,-100.00,West,275,1.0,3.0,78,-99.99,,,-99.99,,2013-02-15 09:12:00,
2013-02-15 03:21:00,38.0,32.0,-100.00,West,280,0.0,1.0,78,-99.99,,,-99.99,,2013-02-15 09:21:00,
2013-02-15 03:32:00,38.0,32.0,-100.00,West,280,0.0,1.0,78,-99.99,,,-99.99,,2013-02-15 09:32:00,
2013-02-15 03:42:00,37.0,31.0,-100.00,WNW,295,1.0,2.0,78,-99.99,,,-99.99,,2013-02-15 09:42:00,
2013-02-15 03:52:00,38.0,31.0,-100.00,WNW,285,3.0,4.0,77,-99.99,,,-99.99,,2013-02-15 09:52:00,
2013-02-15 04:01:00,38.0,31.0,-100.00,WNW,285,3.0,4.0,77,-99.99,,,-99.99,,2013-02-15 10:01:00,
2013-02-15 04:11:00,39.0,31.0,-100.00,West,275,2.0,4.0,73,-99.99,,,-99.99,,2013-02-15 10:11:00,
2013-02-15 04:21:00,41.0,31.0,-100.00,WNW,295,8.0,10.0,67,-99.99,,,-99.99,,2013-02-15 10:21:00,
2013-02-15 04:31:00,41.0,31.0,-100.00,WNW,295,8.0,10.0,67,-99.99,,,-99.99,,2013-02-15 10:31:00,
2013-02-15 04:42:00,42.0,28.0,-100.00,NW,310,6.0,9.0,58,-99.99,,,-99.99,,2013-02-15 10:42:00,
2013-02-15 04:52:00,42.0,26.0,-100.00,WNW,300,10.0,12.0,53,-99.99,,,-99.99,,2013-02-15 10:52:00,
2013-02-15 05:01:00,42.0,26.0,-100.00,WNW,300,10.0,12.0,53,-99.99,,,-99.99,,2013-02-15 11:01:00,
2013-02-15 05:11:00,42.0,26.0,-100.00,NW,305,4.0,9.0,53,-99.99,,,-99.99,,2013-02-15 11:11:00,
2013-02-15 05:23:00,42.0,26.0,-100.00,North,0,1.0,3.0,53,-99.99,,,-99.99,,2013-02-15 11:23:00,
2013-02-15 05:32:00,42.0,26.0,-100.00,North,0,1.0,3.0,53,-99.99,,,-99.99,,2013-02-15 11:32:00,
2013-02-15 05:42:00,42.0,26.0,-100.00,NW,310,6.0,8.0,53,-99.99,,,-99.99,,2013-02-15 11:42:00,
2013-02-15 05:52:00,42.0,26.0,-100.00,WNW,300,4.0,6.0,54,-99.99,,,-99.99,,2013-02-15 11:52:00,
2013-02-15 06:02:00,42.0,26.0,-100.00,WNW,300,4.0,6.0,54,-99.99,,,-99.99,,2013-02-15 12:02:00,
2013-02-15 06:11:00,41.0,26.0,-100.00,West,280,1.0,1.0,55,-99.99,,,-99.99,,2013-02-15 12:11:00,
2013-02-15 06:21:00,41.0,26.0,-100.00,West,280,3.0,3.0,56,-99.99,,,-99.99,,2013-02-15 12:21:00,
2013-02-15 06:32:00,41.0,26.0,-100.00,West,280,3.0,3.0,56,-99.99,,,-99.99,,2013-02-15 12:32:00,
2013-02-15 06:42:00,40.0,27.0,-100.00,West,260,2.0,3.0,58,-99.99,,,-99.99,,2013-02-15 12:42:00,
2013-02-15 06:52:00,40.0,27.0,-100.00,West,275,3.0,6.0,58,-99.99,,,-99.99,,2013-02-15 12:52:00,
2013-02-15 07:02:00,40.0,27.0,-100.00,West,275,3.0,6.0,58,-99.99,,,-99.99,,2013-02-15 13:02:00,
2013-02-15 07:11:00,40.0,27.0,-100.00,WNW,290,3.0,3.0,59,-99.99,,,-99.99,,2013-02-15 13:11:00,
2013-02-15 07:22:00,40.0,27.0,-100.00,NW,305,4.0,6.0,59,-99.99,,,-99.99,,2013-02-15 13:22:00,
2013-02-15 07:32:00,40.0,27.0,-100.00,NW,305,4.0,6.0,59,-99.99,,,-99.99,,2013-02-15 13:32:00,
2013-02-15 07:42:00,40.0,27.0,-100.00,WNW,295,3.0,4.0,58,-99.99,,,-99.99,,2013-02-15 13:42:00,
2013-02-15 07:52:00,40.0,27.0,-100.00,NW,310,4.0,10.0,59,-99.99,,,-99.99,,2013-02-15 13:52:00,
2013-02-15 08:01:00,40.0,27.0,-100.00,NW,310,4.0,10.0,59,-99.99,,,-99.99,,2013-02-15 14:01:00,
2013-02-15 08:12:00,40.0,26.0,-100.00,NNW,335,6.0,10.0,59,-99.99,,,-99.99,,2013-02-15 14:12:00,
2013-02-15 08:21:00,39.0,26.0,-100.00,NNW,330,9.0,12.0,59,-99.99,,,-99.99,,2013-02-15 14:21:00,
2013-02-15 08:32:00,39.0,26.0,-100.00,NNW,330,9.0,12.0,59,-99.99,,,-99.99,,2013-02-15 14:32:00,
2013-02-15 08:42:00,39.0,26.0,-100.00,NNW,340,6.0,8.0,59,-99.99,,,-99.99,,2013-02-15 14:42:00,
2013-02-15 08:52:00,39.0,25.0,-100.00,NW,310,12.0,16.0,59,-99.99,,,-99.99,,2013-02-15 14:52:00,
2013-02-15 09:01:00,39.0,25.0,-100.00,NW,310,12.0,16.0,59,-99.99,,,-99.99,,2013-02-15 15:01:00,
2013-02-15 09:11:00,39.0,25.0,-100.00,NW,315,6.0,11.0,58,-99.99,,,-99.99,,2013-02-15 15:11:00,
2013-02-15 09:21:00,40.0,26.0,-100.00,NW,310,14.0,21.0,58,-99.99,,,-99.99,,2013-02-15 15:21:00,
2013-02-15 09:32:00,40.0,26.0,-100.00,NW,310,14.0,21.0,58,-99.99,,,-99.99,,2013-02-15 15:32:00,
2013-02-15 09:42:00,38.0,26.0,-100.00,NW,305,8.0,12.0,61,-99.99,,,-99.99,,2013-02-15 15:42:00,
2013-02-15 09:52:00,38.0,25.0,-100.00,NW,310,11.0,14.0,61,-99.99,,,-99.99,,2013-02-15 15:52:00,
2013-02-15 10:02:00,38.0,25.0,-100.00,NW,310,11.0,14.0,61,-99.99,,,-99.99,,2013-02-15 16:02:00,
2013-02-15 10:11:00,38.0,25.0,-100.00,WNW,295,18.0,21.0,60,-99.99,,,-99.99,,2013-02-15 16:11:00,
2013-02-15 10:22:00,38.0,25.0,-100.00,NW,310,12.0,18.0,58,-99.99,,,-99.99,,2013-02-15 16:22:00,
2013-02-15 10:32:00,38.0,25.0,-100.00,NW,310,12.0,18.0,58,-99.99,,,-99.99,,2013-02-15 16:32:00,
2013-02-15 10:42:00,39.0,25.0,-100.00,WNW,295,21.0,26.0,57,-99.99,,,-99.99,,2013-02-15 16:42:00,
2013-02-15 10:52:00,38.0,24.0,-100.00,WNW,295,12.0,16.0,57,-99.99,,,-99.99,,2013-02-15 16:52:00,
2013-02-15 11:01:00,38.0,24.0,-100.00,WNW,295,12.0,16.0,57,-99.99,,,-99.99,,2013-02-15 17:01:00,
2013-02-15 11:11:00,38.0,24.0,-100.00,NW,315,11.0,18.0,56,-99.99,,,-99.99,,2013-02-15 17:11:00,
2013-02-15 11:21:00,39.0,24.0,-100.00,NNW,345,6.0,12.0,56,-99.99,,,-99.99,,2013-02-15 17:21:00,
2013-02-15 11:32:00,39.0,24.0,-100.00,NW,305,6.0,10.0,55,-99.99,,,-99.99,,2013-02-15 17:32:00,
2013-02-15 11:42:00,39.0,24.0,-100.00,NW,305,6.0,10.0,55,-99.99,,,-99.99,,2013-02-15 17:42:00,
2013-02-15 11:52:00,39.0,24.0,-100.00,North,5,6.0,10.0,54,-99.99,,,-99.99,,2013-02-15 17:52:00,
2013-02-15 12:01:00,39.0,24.0,-100.00,North,5,6.0,10.0,54,-99.99,,,-99.99,,2013-02-15 18:01:00,
2013-02-15 12:11:00,38.0,23.0,-100.00,NNW,335,12.0,14.0,53,-99.99,,,-99.99,,2013-02-15 18:11:00,
2013-02-15 12:21:00,38.0,22.0,-100.00,NNW,335,9.0,11.0,52,-99.99,,,-99.99,,2013-02-15 18:21:00,
2013-02-15 12:32:00,38.0,22.0,-100.00,NNW,335,9.0,11.0,52,-99.99,,,-99.99,,2013-02-15 18:32:00,
2013-02-15 12:42:00,39.0,22.0,-100.00,NW,305,8.0,12.0,51,-99.99,,,-99.99,,2013-02-15 18:42:00,
2013-02-15 12:53:00,39.0,22.0,-100.00,North,0,6.0,10.0,50,-99.99,,,-99.99,,2013-02-15 18:53:00,
2013-02-15 13:01:00,39.0,22.0,-100.00,North,0,6.0,10.0,50,-99.99,,,-99.99,,2013-02-15 19:01:00,
2013-02-15 13:11:00,40.0,21.0,-100.00,WNW,300,6.0,10.0,46,-99.99,,,-99.99,,2013-02-15 19:11:00,
2013-02-15 13:22:00,41.0,20.0,-100.00,NNW,330,10.0,16.0,43,-99.99,,,-99.99,,2013-02-15 19:22:00,
2013-02-15 13:32:00,41.0,20.0,-100.00,NNW,330,10.0,16.0,43,-99.99,,,-99.99,,2013-02-15 19:32:00,
2013-02-15 13:42:00,41.0,20.0,-100.00,North,0,10.0,16.0,43,-99.99,,,-99.99,,2013-02-15 19:42:00,
2013-02-15 13:52:00,40.0,18.0,-100.00,NNW,330,14.0,18.0,40,-99.99,,,-99.99,,2013-02-15 19:52:00,
2013-02-15 14:01:00,40.0,18.0,-100.00,NNW,330,14.0,18.0,40,-99.99,,,-99.99,,2013-02-15 20:01:00,
2013-02-15 14:11:00,40.0,17.0,-100.00,WNW,300,14.0,14.0,40,-99.99,,,-99.99,,2013-02-15 20:11:00,
2013-02-15 14:21:00,42.0,17.0,-100.00,North,10,4.0,6.0,37,-99.99,,,-99.99,,2013-02-15 20:21:00,
2013-02-15 14:32:00,42.0,17.0,-100.00,North,10,4.0,6.0,37,-99.99,,,-99.99,,2013-02-15 20:32:00,
2013-02-15 14:42:00,40.0,16.0,-100.00,WNW,285,8.0,10.0,37,-99.99,,,-99.99,,2013-02-15 20:42:00,
2013-02-15 14:52:00,41.0,16.0,-100.00,NNW,335,6.0,9.0,37,-99.99,,,-99.99,,2013-02-15 20:52:00,
2013-02-15 15:02:00,41.0,16.0,-100.00,NNW,335,6.0,9.0,37,-99.99,,,-99.99,,2013-02-15 21:02:00,
2013-02-15 15:11:00,41.0,17.0,-100.00,NW,305,9.0,12.0,37,-99.99,,,-99.99,,2013-02-15 21:11:00,
2013-02-15 15:21:00,40.0,15.0,-100.00,West,270,14.0,18.0,35,-99.99,,,-99.99,,2013-02-15 21:21:00,
2013-02-15 15:32:00,40.0,15.0,-100.00,West,270,14.0,18.0,35,-99.99,,,-99.99,,2013-02-15 21:32:00,
2013-02-15 15:42:00,41.0,15.0,-100.00,NW,320,9.0,12.0,34,-99.99,,,-99.99,,2013-02-15 21:42:00,
2013-02-15 15:52:00,40.0,16.0,-100.00,NNW,330,9.0,10.0,36,-99.99,,,-99.99,,2013-02-15 21:52:00,
2013-02-15 16:02:00,40.0,16.0,-100.00,NNW,330,9.0,10.0,36,-99.99,,,-99.99,,2013-02-15 22:02:00,
2013-02-15 16:11:00,40.0,15.0,-100.00,NW,320,4.0,12.0,35,-99.99,,,-99.99,,2013-02-15 22:11:00,
2013-02-15 16:22:00,40.0,14.0,-100.00,NNW,340,12.0,16.0,34,-99.99,,,-99.99,,2013-02-15 22:22:00,
2013-02-15 16:32:00,40.0,14.0,-100.00,NNW,340,12.0,16.0,34,-99.99,,,-99.99,,2013-02-15 22:32:00,
2013-02-15 16:41:00,40.0,14.0,-100.00,NW,320,11.0,17.0,34,-99.99,,,-99.99,,2013-02-15 22:41:00,
2013-02-15 16:52:00,40.0,14.0,-100.00,North,350,6.0,9.0,34,-99.99,,,-99.99,,2013-02-15 22:52:00,
2013-02-15 17:02:00,40.0,14.0,-100.00,North,350,6.0,9.0,34,-99.99,,,-99.99,,2013-02-15 23:02:00,
2013-02-15 17:11:00,40.0,14.0,-100.00,North,350,4.0,6.0,34,-99.99,,,-99.99,,2013-02-15 23:11:00,
2013-02-15 17:21:00,39.0,13.0,-100.00,North,0,6.0,10.0,34,-99.99,,,-99.99,,2013-02-15 23:21:00,
2013-02-15 17:32:00,38.0,12.0,-100.00,North,0,9.0,16.0,34,-99.99,,,-99.99,,2013-02-15 23:32:00,
2013-02-15 17:42:00,38.0,12.0,-100.00,North,0,9.0,16.0,34,-99.99,,,-99.99,,2013-02-15 23:42:00,
2013-02-15 17:52:00,37.0,12.0,-100.00,NNW,345,4.0,6.0,35,-99.99,,,-99.99,,2013-02-15 23:52:00,
2013-02-15 18:02:00,37.0,12.0,-100.00,NNW,345,4.0,6.0,35,-99.99,,,-99.99,,2013-02-16 00:02:00,
2013-02-15 18:11:00,36.0,12.0,-100.00,North,0,3.0,6.0,36,-99.99,,,-99.99,,2013-02-16 00:11:00,
2013-02-15 18:21:00,35.0,12.0,-100.00,North,0,4.0,6.0,37,-99.99,,,-99.99,,2013-02-16 00:21:00,
2013-02-15 18:32:00,35.0,12.0,-100.00,North,0,4.0,6.0,37,-99.99,,,-99.99,,2013-02-16 00:32:00,
2013-02-15 18:41:00,35.0,12.0,-100.00,NNW,330,1.0,4.0,38,-99.99,,,-99.99,,2013-02-16 00:41:00,
2013-02-15 18:52:00,34.0,11.0,-100.00,North,350,2.0,3.0,38,-99.99,,,-99.99,,2013-02-16 00:52:00,
2013-02-15 19:02:00,34.0,11.0,-100.00,North,350,2.0,3.0,38,-99.99,,,-99.99,,2013-02-16 01:02:00,
2013-02-15 19:11:00,34.0,11.0,-100.00,North,0,1.0,3.0,39,-99.99,,,-99.99,,2013-02-16 01:11:00,
2013-02-15 19:21:00,33.0,12.0,-100.00,NNW,330,0.0,0.0,40,-99.99,,,-99.99,,2013-02-16 01:21:00,
2013-02-15 19:32:00,33.0,12.0,-100.00,NNW,330,0.0,0.0,40,-99.99,,,-99.99,,2013-02-16 01:32:00,
2013-02-15 19:42:00,33.0,12.0,-100.00,NE,50,0.0,0.0,41,-99.99,,,-99.99,,2013-02-16 01:42:00,
2013-02-15 19:52:00,32.0,12.0,-100.00,NW,320,1.0,1.0,42,-99.99,,,-99.99,,2013-02-16 01:52:00,
2013-02-15 20:01:00,32.0,12.0,-100.00,NW,320,1.0,1.0,42,-99.99,,,-99.99,,2013-02-16 02:01:00,
2013-02-15 20:11:00,32.0,12.0,-100.00,NNW,330,0.0,0.0,44,-99.99,,,-99.99,,2013-02-16 02:11:00,
2013-02-15 20:21:00,31.0,13.0,-100.00,WNW,285,0.0,1.0,47,-99.99,,,-99.99,,2013-02-16 02:21:00,
2013-02-15 20:32:00,31.0,13.0,-100.00,WNW,285,0.0,1.0,47,-99.99,,,-99.99,,2013-02-16 02:32:00,
2013-02-15 20:42:00,30.0,14.0,-100.00,ENE,65,0.0,0.0,50,-99.99,,,-99.99,,2013-02-16 02:42:00,
2013-02-15 20:52:00,29.0,15.0,-100.00,WNW,295,0.0,0.0,54,-99.99,,,-99.99,,2013-02-16 02:52:00,
2013-02-15 21:02:00,29.0,15.0,-100.00,WNW,295,0.0,0.0,54,-99.99,,,-99.99,,2013-02-16 03:02:00,
2013-02-15 21:11:00,28.0,16.0,-100.00,South,175,1.0,1.0,59,-99.99,,,-99.99,,2013-02-16 03:11:00,
2013-02-15 21:21:00,27.0,16.0,-100.00,SSW,195,0.0,1.0,62,-99.99,,,-99.99,,2013-02-16 03:21:00,
2013-02-15 21:32:00,27.0,16.0,-100.00,SSW,195,0.0,1.0,62,-99.99,,,-99.99,,2013-02-16 03:32:00,
2013-02-15 21:42:00,27.0,17.0,-100.00,SW,215,0.0,1.0,65,-99.99,,,-99.99,,2013-02-16 03:42:00,
2013-02-15 21:52:00,26.0,17.0,-100.00,SW,235,0.0,1.0,67,-99.99,,,-99.99,,2013-02-16 03:52:00,
2013-02-15 22:01:00,26.0,17.0,-100.00,SW,235,0.0,1.0,67,-99.99,,,-99.99,,2013-02-16 04:01:00,
2013-02-15 22:11:00,26.0,17.0,-100.00,SW,235,0.0,0.0,68,-99.99,,,-99.99,,2013-02-16 04:11:00,
2013-02-15 22:21:00,25.0,17.0,-100.00,South,185,1.0,2.0,72,-99.99,,,-99.99,,2013-02-16 04:21:00,
2013-02-15 22:32:00,25.0,17.0,-100.00,South,185,1.0,2.0,72,-99.99,,,-99.99,,2013-02-16 04:32:00,
2013-02-15 22:42:00,25.0,18.0,-100.00,South,190,1.0,1.0,74,-99.99,,,-99.99,,2013-02-16 04:42:00,
2013-02-15 22:52:00,25.0,18.0,-100.00,SSW,200,0.0,1.0,75,-99.99,,,-99.99,,2013-02-16 04:52:00,
2013-02-15 23:01:00,25.0,18.0,-100.00,SSW,200,0.0,1.0,75,-99.99,,,-99.99,,2013-02-16 05:01:00,
2013-02-15 23:12:00,24.0,18.0,-100.00,SW,215,0.0,0.0,76,-99.99,,,-99.99,,2013-02-16 05:12:00,
2013-02-15 23:22:00,24.0,18.0,-100.00,South,185,1.0,2.0,78,-99.99,,,-99.99,,2013-02-16 05:22:00,
2013-02-15 23:31:00,24.0,19.0,-100.00,South,190,1.0,1.0,82,-99.99,,,-99.99,,2013-02-16 05:31:00,
2013-02-15 23:32:00,24.0,18.0,-100.00,South,185,1.0,2.0,78,-99.99,,,-99.99,,2013-02-16 05:32:00,
2013-02-15 23:42:00,24.0,18.0,-100.00,South,185,1.0,1.0,79,-99.99,,,-99.99,,2013-02-16 05:42:00,
2013-02-15 23:52:00,24.0,19.0,-100.00,SW,215,0.0,0.0,81,-99.99,,,-99.99,,2013-02-16 05:52:00,